Weather History for Rochester, NH

Change the Weather History Date:

Sunday, February 23, 2014

  Actual Average (KSFM) Record (KSFM)
Temperature  
Mean Temperature 37 °F -  
Max Temperature 46 °F 34 °F 48 °F (2012)
Min Temperature 28 °F 15 °F -7 °F (2011)
Degree Days  
Heating Degree Days 28    
Moisture  
Dew Point 22 °F    
Average Humidity 51    
Maximum Humidity 69    
Minimum Humidity 36    
Precipitation  
Precipitation 0.00 in - - ()
Sea Level Pressure  
Sea Level Pressure 29.86 in    
Wind  
Wind Speed 2 mph (SSW)    
Max Wind Speed 8 mph    
Max Gust Speed -    
Visibility 10 miles    
Events      
Averages and records for this station are not official NWS values.
T = Trace of Precipitation, MM = Missing Value Source: NWS Daily Summary

Daily Weather History Graph

Daily Weather History Graph

Search for Another Location

Airport:

Trip Planner

Search our weather history database for the weather conditions in past years. The results will help you decide how hot, cold, wet, or windy it might be!

Date:

Astronomy

Feb. 23, 2014 Rise Set
Actual Time 6:29 AM EST 5:25 PM EST
Civil Twilight 6:00 AM EST 5:53 PM EST
Nautical Twilight 5:27 AM EST 6:27 PM EST
Astronomical Twilight 4:54 AM EST 7:00 PM EST
Moon 1:29 AM EST (2/23) 11:19 AM EST (2/23)
Length of Visible Light 11h 53m
Length of Day
10h 55m
Last Quarter, 39% of the Moon is Illuminated
Feb 23
Last Quarter
Mar 1
New
Mar 8
First Quarter
Mar 16
Full
Mar 23
Last Quarter

Hourly Weather History & Observations

Time (EST) Temp. Windchill Dew Point Humidity Pressure Visibility Wind Dir Wind Speed Gust Speed Precip Events Conditions
12:51 AM 33.1 °F - 21.9 °F 64% 29.92 in 10.0 mi Calm Calm - N/A   Clear
1:51 AM 34.0 °F - 19.9 °F 56% 29.94 in 10.0 mi Calm Calm - N/A   Clear
2:51 AM 34.0 °F 31.0 °F 19.9 °F 56% 29.94 in 10.0 mi Variable 3.5 mph - N/A   Partly Cloudy
3:51 AM 30.0 °F 26.5 °F 21.0 °F 69% 29.95 in 10.0 mi South 3.5 mph - N/A   Scattered Clouds
4:51 AM 32.0 °F - 19.9 °F 61% 29.93 in 10.0 mi Calm Calm - N/A   Partly Cloudy
5:51 AM 28.9 °F - 19.9 °F 69% 29.93 in 10.0 mi Calm Calm - N/A   Partly Cloudy
6:51 AM 30.9 °F 27.5 °F 21.9 °F 69% 29.93 in 10.0 mi Variable 3.5 mph - N/A   Overcast
7:51 AM 33.1 °F 30.0 °F 21.9 °F 64% 29.94 in 10.0 mi South 3.5 mph - N/A   Partly Cloudy
8:51 AM 37.9 °F - 23.0 °F 55% 29.93 in 10.0 mi Calm Calm - N/A   Clear
9:51 AM 42.1 °F 40.2 °F 24.1 °F 49% 29.92 in 10.0 mi Variable 3.5 mph - N/A   Clear
10:51 AM 45.0 °F 43.5 °F 24.1 °F 44% 29.89 in 10.0 mi Variable 3.5 mph - N/A   Clear
11:51 AM 46.0 °F 43.9 °F 24.1 °F 42% 29.88 in 10.0 mi Variable 4.6 mph - N/A   Clear
12:51 PM 46.0 °F 43.1 °F 24.1 °F 42% 29.85 in 10.0 mi Variable 5.8 mph - N/A   Partly Cloudy
1:51 PM 46.0 °F 43.1 °F 24.1 °F 42% 29.83 in 10.0 mi Variable 5.8 mph - N/A   Scattered Clouds
2:51 PM 46.9 °F - 23.0 °F 39% 29.83 in 10.0 mi Variable 3.5 mph - N/A   Mostly Cloudy
3:51 PM 46.9 °F - 23.0 °F 39% 29.81 in 10.0 mi South 8.1 mph - N/A   Scattered Clouds
4:51 PM 45.0 °F 43.5 °F 24.1 °F 44% 29.80 in 10.0 mi South 3.5 mph - N/A   Clear
5:51 PM 43.0 °F - 24.1 °F 47% 29.80 in 10.0 mi Calm Calm - N/A   Mostly Cloudy
6:51 PM 42.1 °F - 23.0 °F 47% 29.79 in 10.0 mi Calm Calm - N/A   Scattered Clouds
7:51 PM 41.0 °F - 21.9 °F 47% 29.80 in 10.0 mi Calm Calm - N/A   Partly Cloudy
8:51 PM 39.9 °F - 21.9 °F 49% 29.78 in 10.0 mi Calm Calm - N/A   Clear
9:51 PM 37.9 °F 34.4 °F 19.9 °F 48% 29.77 in 10.0 mi NW 4.6 mph - N/A   Clear
10:51 PM 39.0 °F - 15.1 °F 38% 29.76 in 10.0 mi Calm Calm - N/A   Clear
11:51 PM 39.0 °F - 14.0 °F 36% 29.74 in 10.0 mi Calm Calm - N/A   Clear